[Date Prev][Date Next][Thread Prev][Thread Next] - [Date Index][Thread Index][Author Index]

2 Line ISS Keps 5-24



ISS
1 25544U 98067A   05143.98767361  .00016412  00000-0  12685-3 0  5355
2 25544 051.6463 024.8731 0005663 155.5693 043.6603 15.72054135371877
----
Via the sarex mailing list at AMSAT.ORG courtesy of AMSAT-NA.
To unsubscribe, send "unsubscribe sarex" to Majordomo@amsat.org



AMSAT Top AMSAT Home